Find Starlink 31907

NORAD ID: 59797 Int'l Des: 2024-093 Owner: SPXS Country: US Constellation: starlink operational
LEOCIRCULAR

Current View

Loading 3D Globe...

About Starlink 31907

Starlink 31907 (NORAD 59797) is a starlink constellation satellite (v2 mini) launched May 18, 2024 by SPXS of US. It operates in LEO, CIRCULAR orbit with a mass of 730.00 kg.

Upcoming Passes

Passes for default location (London). Set your location on the main map for personalized predictions.

Altitude History

Loading altitude history...

Two-Line Element Set

1 59797U 24093R 26236.59336962 -.00001805 00000-0 -56030-4 0 9991
2 59797 43.0039 340.7055 0001556 280.1456 79.9220 15.27596436128373
Epoch: Aug 24, 2026 • Age: 11 hours

Current Status

Altitude 486.3 km
Apogee / Perigee N/A
Velocity 7.63 km/s
Sub-Earth Point 38.89°N, 99.54°E
Launch Date May 18, 2024
Age 2.2 years
Type internet

Technical Details

Classification Payload
Mass 730.00 kg
Dry Mass 700.00 kg
Total Mass 730.00 kg
Length 0.30 m
Diameter 4.10 m
Span 29.00 m
Shape Box + pan
Manufacturer SPXS
Bus Type Starlink V2M
Phase Status In Orbit
Owner/State SPXS/US

Most Searched